Home > Weather > Salvador > Past weeks

Flag for Brazil Past Weather in Salvador, Bahia, Brazil — Yesterday and Last 2 Weeks

Now
75 °F

Passing clouds.


Feels Like: 75 °F
Forecast: 75 / 82 °F
Wind: No wind

Location: Salvador Aeroporto

Current Time: May 30, 2016 at 11:20:23 PM

Latest Report: May 30, 2016 at 11:00 PM


Visibility: N/A

Pressure: 29.95 "Hg

Humidity: 89%

Dew Point: 72 °F

Location of SalvadorLocation

Past Weather in Salvador — Graph

°F

Salvador Temperature Yesterday

Maximum temperature yesterday: 84 °F (at 9:00 AM)
Minimum temperature yesterday: 77 °F (at 12:00 AM)
Average temperature yesterday: 81 °F

High & Low Weather Summary for the Past Weeks

 TemperatureHumidityPressure
High86 °F (May 18, 11:00 AM)100% (May 23, 11:00 AM)30.12 "Hg (May 23, 11:00 AM)
Low43 °F (May 23, 11:00 AM)48% (May 20, 2:00 PM)29.92 "Hg (May 17, 3:00 PM)
Average79 °F75%30.02 "Hg
* Reported May 15 10:00 PM — May 30 10:00 PM, Salvador, Weather by CustomWeather, © 2016

Note: Actual official high and low records may vary slightly from our data, if they occured in-between our weather recording intervals... More about our weather records

Advertising

Salvador Weather History for the Previous 24 Hours

Scroll right to see more
 ConditionsComfort  
Time TempWeatherWind HumidityBarometerVisibility
10:00 PM
Mon, May 30
75 °FPassing clouds.2 mph89%29.95 "HgN/A
9:00 PM77 °FPassing clouds.2 mph83%29.95 "HgN/A
8:00 PM75 °FPassing clouds.2 mph89%29.95 "HgN/A
7:00 PM77 °FPassing clouds.1 mph83%29.92 "HgN/A
6:00 PM79 °FPassing clouds.5 mph74%29.92 "HgN/A
5:00 PM79 °FBroken clouds.5 mph79%29.92 "HgN/A
4:00 PM81 °FBroken clouds.6 mph74%29.92 "HgN/A
3:00 PM81 °FBroken clouds.3 mph74%29.92 "HgN/A
2:00 PM81 °FBroken clouds.5 mph74%29.95 "HgN/A
12:00 PM77 °FBroken clouds.2 mph89%29.98 "Hg4 mi
11:00 AM75 °FLight rain. Fog.8 mph89%30.04 "Hg2 mi
10:00 AM77 °FPartly sunny.6 mph83%30.04 "Hg4 mi
9:00 AM81 °FLight rain. Broken clouds.5 mph74%N/A4 mi
8:00 AM84 °FScattered clouds.2 mph66%30.01 "HgN/A
7:00 AM77 °FScattered clouds.No wind83%29.98 "HgN/A
6:00 AM75 °FScattered clouds.2 mph83%29.98 "HgN/A
5:00 AM75 °FPassing clouds.2 mph83%29.98 "HgN/A
4:00 AM79 °FPassing clouds.5 mph74%29.95 "HgN/A
3:00 AM79 °FPassing clouds.5 mph74%29.95 "HgN/A
2:00 AM79 °FPassing clouds.10 mph74%29.98 "HgN/A
1:00 AM79 °FPassing clouds.6 mph74%29.98 "HgN/A
12:00 AM79 °FPassing clouds.10 mph74%29.98 "HgN/A
11:00 PM
Sun, May 29
79 °FPassing clouds.8 mph74%30.01 "HgN/A
Weather by CustomWeather, © 2016

See weather overviewHow to use our weather pages